Regional Weather Roundup
Issued by NWS

Home | Current Version | Previous Version | Graphics & Text | Print | Product List | Glossary On
Versions: 1 2 3 4 5 6 7 8 9 10 11 12 13 14 15 16 17 18 19 20 21 22 23 24 25 26 27 28
000
ASUS45 KPSR 271810
RWRAZ

ARIZONA HOURLY REGIONAL WEATHER ROUNDUP
NATIONAL WEATHER SERVICE PHOENIX AZ
1100 AM MST WED APR 27 2016

NOTE: FAIR INDICATES FEW OR NO CLOUDS BELOW 12,000 FEET WITH NO
SIGNIFICANT WEATHER AND/OR OBSTRUCTIONS TO VISIBILITY.

AZZ001>003-036-271900-
NORTHWEST ARIZONA

CITY           SKY/WX    TMP DP  RH WIND       PRES   REMARKS
BULLHEAD CITY  SUNNY     77  28  16 S18       29.77F
KINGMAN        MOSUNNY   70  25  18 SW24G31   29.82F
6HR MIN TEMP:  52; 6HR MAX TEMP:  70;

$$

AZZ004>008-015-016-018-271900-
NORTH CENTRAL ARIZONA

CITY           SKY/WX    TMP DP  RH WIND       PRES   REMARKS
GRAND CANYON   PTSUNNY   56  27  32 SW13      29.92F
6HR MIN TEMP:  27; 6HR MAX TEMP:  56;

PRESCOTT       PTSUNNY   60  26  27 S14G20    29.90F
6HR MIN TEMP:  39; 6HR MAX TEMP:  61;

FLAGSTAFF      CLOUDY    50  26  39 SW13G21   29.95S
6HR MIN TEMP:  26; 6HR MAX TEMP:  52;

PAYSON         MOSUNNY   59  25  27 VRB5      29.96S
PAGE           CLOUDY    63  34  33 NE6       29.84F
6HR MIN TEMP:  50; 6HR MAX TEMP:  63;

$$

AZZ009>014-017-271900-
NORTHEAST ARIZONA

CITY           SKY/WX    TMP DP  RH WIND       PRES   REMARKS
WINSLOW        PTSUNNY   63  27  25 VRB6      29.88F
6HR MIN TEMP:  42; 6HR MAX TEMP:  63;

SAINT JOHNS    PTSUNNY   58  26  29 VRB3      29.91F
6HR MIN TEMP:  36; 6HR MAX TEMP:  58;

WINDOW ROCK    PTSUNNY   57  25  29 W9G17     29.92F
6HR MIN TEMP:  29; 6HR MAX TEMP:  57;

SHOW LOW       MOSUNNY   54  23  30 CALM      29.95F
$$

AZZ023-271900-
GREATER PHOENIX AREA

CITY           SKY/WX    TMP DP  RH WIND       PRES   REMARKS
PHOENIX        PTSUNNY   76  30  18 SW3       29.82F
6HR MIN TEMP:  60; 6HR MAX TEMP:  76;

BUCKEYE        SUNNY     72  36  26 SE3       29.85F
GLENDALE       PTSUNNY   73  32  21 VRB3      29.85F
LUKE AFB       SUNNY     74  34  23 S5        29.82F
6HR MIN TEMP:  53; 6HR MAX TEMP:  74; 6HR PCP: TRACE;

DEER VALLEY    SUNNY     73  27  18 SW8       29.83F
6HR MIN TEMP:  54; 6HR MAX TEMP:  73;

SCOTTSDALE     SUNNY     72  25  17 S6        29.86S
6HR MIN TEMP:  55; 6HR MAX TEMP:  73;

MESA-FALCON    MOSUNNY  N/A N/A N/A S12       29.82F
MESA-GATEWAY   PTSUNNY   73  30  20 W6        29.85F
CHANDLER       PTSUNNY   73  28  19 SE6       29.84F
$$

AZZ027-028-271900-
SOUTHWEST MARICOPA COUNTY AND PINAL COUNTY

CITY           SKY/WX    TMP DP  RH WIND       PRES   REMARKS
CASA GRANDE    MOSUNNY   73  27  17 S8        29.86F
6HR MIN TEMP:  52; 6HR MAX TEMP:  73;

GILA BEND      MOSUNNY   74  30  19 E1        29.82F
6HR MIN TEMP:  52; 6HR MAX TEMP:  75;

$$

AZZ503-504-507>509-271900-
SOUTHEAST ARIZONA

CITY           SKY/WX    TMP DP  RH WIND       PRES   REMARKS
TUCSON         SUNNY     73  22  14 VRB3      29.88F
6HR MIN TEMP:  51; 6HR MAX TEMP:  73;

DAVIS-MONTHAN  SUNNY     72  23  15 VRB3      29.86F
6HR MIN TEMP:  49; 6HR MAX TEMP:  72;

RYAN FIELD     SUNNY     73  28  19 W6        29.88F
NOGALES        SUNNY     73  13  10 SW9G22    29.91F
6HR MIN TEMP:  38; 6HR MAX TEMP:  73;

SIERRA VISTA   SUNNY     67  16  14 SW3       29.94F
6HR MIN TEMP:  43; 6HR MAX TEMP:  67;

DOUGLAS        SUNNY     68  20  16 MISG      29.93F
6HR MIN TEMP:  35; 6HR MAX TEMP:  68; 6HR PCP: TRACE;

SAFFORD        SUNNY     68  25  19 VRB5      29.87F
6HR MIN TEMP:  43; 6HR MAX TEMP:  69;

$$

AZZ020-021-025-026-031-271900-
SOUTHWEST ARIZONA

CITY           SKY/WX    TMP DP  RH WIND       PRES   REMARKS
YUMA           MOSUNNY   77  45  32 W6        29.80F
6HR MIN TEMP:  60; 6HR MAX TEMP:  77;

$$

CAZ031-033-041-043-047-048-061-271900-
SOUTHERN CALIFORNIA

CITY           SKY/WX    TMP DP  RH WIND       PRES   REMARKS
DOWNTOWN L.A.  SUNNY     69  46  43 VRB3      29.88F
6HR MIN TEMP:  55; 6HR MAX TEMP:  69;

L.A. AIRPORT   MOSUNNY   64  51  62 SW12      29.90F
6HR MIN TEMP:  55; 6HR MAX TEMP:  66;

SAN DIEGO      PTSUNNY   63  49  60 S15       29.92S
6HR MIN TEMP:  58; 6HR MAX TEMP:  64;

BURBANK        SUNNY     65  41  41 CALM      29.88F
6HR MIN TEMP:  51; 6HR MAX TEMP:  66;

ONTARIO        MOSUNNY   65  38  36 SW8       29.88F
6HR MIN TEMP:  52; 6HR MAX TEMP:  65;

RIVERSIDE      SUNNY     66  39  37 CALM      29.88F
6HR MIN TEMP:  50; 6HR MAX TEMP:  67;

PALM SPRINGS   SUNNY     75  38  26 NW6       29.81S
6HR MIN TEMP:  57; 6HR MAX TEMP:  75;

EL CENTRO NAS  MOSUNNY   78  28  16 S8        29.79F
IMPERIAL       SUNNY     79  29  16 S7        29.78F
BLYTHE         PTSUNNY   77  37  23 S15       29.77F
6HR MIN TEMP:  59; 6HR MAX TEMP:  77;

NEEDLES        SUNNY     79  30  16 SW12G18   29.76F
6HR MIN TEMP:  62; 6HR MAX TEMP:  79;

$$

NVZ020-UTZ003-271900-
SOUTHERN NEVADA-UTAH

CITY           SKY/WX    TMP DP  RH WIND       PRES   REMARKS
LAS VEGAS      PTSUNNY   70  23  17 S9G18     29.73F
6HR MIN TEMP:  60; 6HR MAX TEMP:  70;

SALT LAKE CITY PTSUNNY   55  38  52 CALM      29.84F
6HR MIN TEMP:  45; 6HR MAX TEMP:  56;

$$

NMZ009-TXZ055-271900-
NEW MEXICO-WEST TEXAS

CITY           SKY/WX    TMP DP  RH WIND       PRES   REMARKS
ALBUQUERQUE    MOSUNNY   56  28  34 W3G22     29.88F
6HR MIN TEMP:  41; 6HR MAX TEMP:  56;

EL PASO        SUNNY     70  20  15 W13       29.90F
6HR MIN TEMP:  56; 6HR MAX TEMP:  71;

$$


........................KEY........................
SKY/WX - SKY CONDITION/WEATHER
TMP    - TEMPERATURE IN FAHRENHEIT
DP     - DEW POINT IN FAHRENHEIT
RH     - RELATIVE HUMIDITY IN PERCENT
WIND   - DIRECTION AND SPEED IN MILES PER HOUR (MPH)
VRB    - VARIABLE WIND DIRECTION
PRES   - MEAN SEA LEVEL PRESSURE IN INCHES OF MERCURY
         F - FALLING PRESSURE   R - RISING PRESSURE
         S - STEADY PRESSURE
VSB    - VISIBILITY IN MILES
HX     - HEAT INDEX IN FAHRENHEIT
WCI    - WIND CHILL INDEX IN FAHRENHEIT
TC     - TEMPERATURE IN CELSIUS WHICH IS ALSO KNOWN AS
         TEMPERATURE IN CENTIGRADE
AFB    - AIR FORCE BASE
         LUKE AFB IS LUKE AIR FORCE BASE
         DAVIS-MONTHAN IS DAVIS-MONTHAN AIR FORCE BASE
NAS    - NAVAL AIR STATION
         EL CENTRO NAS IS EL CENTRO NAVAL AIR STATION
N/A    - NOT AVAILABLE





USA.gov is the U.S. government's official web portal to all federal, state and local government web resources and services.